Simultaneous Nadir Overpasses (SNOs) Predictions

Prediction of SNOs between NOAA-19 and NPP Satellite Orbit:

Table of predicted SNOs for the next 14.0 days since TLE Epoch: 5/29/2015
Index Date (NOAA-19) Time (NOAA-19) Lat,Lon (NOAA-19) SZA (NOAA-19 ) Date (NPP) Time (NPP) Lat,Lon (NPP) SZA (NPP ) Distance(km) Time Diff (sec)
1 06/01/2015 00:38:48 81.03, 117.92 62.64 06/01/2015 00:39:56 81.02, 118.04 62.59 1.95 68
2 06/01/2015 01:29:45 -81.03, -74.82 117.37 06/01/2015 01:30:41 -81.03, -74.78 117.40 0.73 56
3 06/01/2015 02:20:50 81.02, 92.67 62.60 06/01/2015 02:21:26 81.03, 92.62 62.58 1.01 36
4 06/01/2015 03:11:46 -81.02, -99.70 117.46 06/01/2015 03:12:10 -81.02, -99.84 117.46 2.38 24
5 06/01/2015 04:02:52 81.02, 67.42 62.55 06/01/2015 04:02:55 81.01, 67.57 62.53 2.70 3
6 06/01/2015
